Date String (YYYY-MM-DD hh:mm:ss) UTC,Instrument flags,Ambient pressure (hPa),Sample flow (lpm),Bypass flow (lpm),Sample temperature (°C),Ambient temperature (°C),ASC tube jacket temperature (°C),LED temperature (°C),Box temperature (°C),Sample RH (%),Span deviation,Mass concentration (μg/m³),Mass concentration (μg/m³),Mass concentration (μg/m³)
DateTimeUTC,F1_M11,P_M11,Q1_M11,Q2_M11,T1_M11,T2_M11,T3_M11,T4_M11,T5_M11,U1_M11,ZSPAN_M11,X0_M11,X2_M11,X1_M11
2021-10-12 03:00:00,,0817.0,4.99,0.00,30.3,29.4,00.0,39.3,32.0,12.1,0000.0,0024.80,0005.10,0003.22
2021-10-12 03:01:00,,0817.0,4.99,0.00,30.3,29.4,00.0,39.3,32.0,12.1,0000.0,0023.22,0005.07,0003.21
2021-10-12 03:02:00,,0817.0,5.02,0.00,30.3,29.4,00.0,39.3,32.0,12.0,0000.0,0023.73,0005.11,0003.22
2021-10-12 03:03:00,,0817.1,5.00,0.00,30.3,29.5,00.0,39.3,32.0,12.1,0000.0,0023.36,0005.14,0003.23
2021-10-12 03:04:00,,0817.2,5.01,0.00,30.3,29.5,00.0,39.4,32.1,12.1,0000.0,0022.37,0005.14,0003.24
2021-10-12 03:05:00,,0817.1,5.00,0.00,30.3,29.5,00.0,39.4,32.1,12.1,0000.0,0022.63,0005.17,0003.24
2021-10-12 03:06:00,,0817.1,5.00,0.00,30.3,29.5,00.0,39.4,32.1,12.2,0000.0,0021.23,0005.14,0003.24
2021-10-12 03:07:00,,0817.1,4.99,0.00,30.3,29.5,00.0,39.4,32.1,12.2,0000.0,0019.86,0005.15,0003.24
2021-10-12 03:08:00,,0817.1,4.99,0.00,30.3,29.6,00.0,39.4,32.1,12.2,0000.0,0019.52,0005.14,0003.25
2021-10-12 03:09:00,,0817.2,5.01,0.00,30.4,29.6,00.0,39.4,32.1,12.2,0000.0,0020.32,0005.20,0003.26
2021-10-12 03:10:00,,0817.2,5.00,0.00,30.4,29.6,00.0,39.4,32.1,12.2,0000.0,0019.78,0005.19,0003.26
2021-10-12 03:11:00,,0817.2,4.99,0.00,30.4,29.6,00.0,39.4,32.2,12.1,0000.0,0019.77,0005.21,0003.27
2021-10-12 03:12:00,,0817.3,5.00,0.00,30.4,29.6,00.0,39.4,32.2,12.1,0000.0,0019.79,0005.21,0003.28
2021-10-12 03:13:00,,0817.2,5.01,0.00,30.4,29.6,00.0,39.5,32.2,12.1,0000.0,0020.76,0005.17,0003.27
2021-10-12 03:14:00,,0817.2,4.98,0.00,30.4,29.6,00.0,39.5,32.2,12.2,0000.0,0021.43,0005.12,0003.26
2021-10-12 03:15:00,,0817.3,4.99,0.00,30.4,29.6,00.0,39.5,32.2,12.2,0000.0,0021.34,0005.17,0003.26
2021-10-12 03:16:00,,0817.3,4.99,0.00,30.4,29.6,00.0,39.5,32.2,12.3,0000.3,0021.86,0005.19,0003.25
2021-10-12 03:17:00,,0817.3,5.00,0.00,30.4,29.6,00.0,39.5,32.2,12.2,0000.6,0023.00,0005.14,0003.25
2021-10-12 03:18:00,,0817.4,5.01,0.00,30.4,29.6,00.0,39.5,32.2,12.3,0000.1,0023.69,0005.12,0003.24
2021-10-12 03:19:00,,0817.4,5.00,0.00,30.5,29.6,00.0,39.5,32.2,12.3,0000.0,0023.42,0005.19,0003.23
2021-10-12 03:20:00,,0817.4,4.99,0.00,30.5,29.7,00.0,39.5,32.2,12.3,0000.0,0024.05,0005.18,0003.23
2021-10-12 03:21:00,,0817.4,5.00,0.00,30.5,29.5,00.0,39.6,32.2,12.2,0000.0,0024.99,0005.23,0003.23
2021-10-12 03:22:00,,0817.4,5.00,0.00,30.4,27.5,00.0,39.5,31.7,12.2,0000.0,0025.20,0005.21,0003.23
2021-10-12 03:23:00,,0817.4,5.00,0.00,30.2,26.4,00.0,39.5,31.3,12.3,0000.1,0024.95,0005.25,0003.21
2021-10-12 03:24:00,,0817.5,5.01,0.00,30.1,26.5,00.0,39.4,31.3,12.3,-000.1,0023.39,0005.26,0003.21
2021-10-12 03:25:00,,0817.5,5.01,0.00,30.0,26.9,00.0,39.3,31.4,12.4,0000.0,0023.28,0005.28,0003.22
2021-10-12 03:26:00,,0817.5,5.00,0.00,29.9,27.3,00.0,39.3,31.4,12.5,0000.0,0023.71,0005.18,0003.22
2021-10-12 03:27:00,,0817.4,4.99,0.00,29.9,27.7,00.0,39.2,31.5,12.6,0000.0,0023.45,0005.05,0003.21
2021-10-12 03:28:00,,0817.4,5.01,0.00,29.9,28.0,00.0,39.2,31.5,12.7,0000.0,0024.34,0005.08,0003.19
2021-10-12 03:29:00,,0817.4,4.99,0.00,29.9,28.2,00.0,39.2,31.6,12.7,0000.0,0026.45,0005.10,0003.20
2021-10-12 03:30:00,,0817.5,4.99,0.00,29.9,28.4,00.0,39.2,31.6,12.6,0000.0,0027.38,0005.10,0003.20
2021-10-12 03:31:00,,0817.5,5.00,0.00,29.9,28.6,00.0,39.2,31.6,12.5,0000.0,0027.12,0005.13,0003.20
2021-10-12 03:32:00,,0817.4,5.01,0.00,30.0,28.7,00.0,39.2,31.7,12.5,0000.2,0026.55,0005.09,0003.20
2021-10-12 03:33:00,,0817.4,4.99,0.00,30.0,28.8,00.0,39.2,31.7,12.6,0000.5,0026.15,0005.12,0003.20
2021-10-12 03:34:00,,0817.4,4.99,0.00,30.0,28.9,00.0,39.1,31.8,12.6,0000.0,0026.80,0005.09,0003.19
2021-10-12 03:35:00,,0817.3,5.01,0.00,30.0,28.9,00.0,39.1,31.7,12.6,0000.0,0026.69,0005.09,0003.18
2021-10-12 03:36:00,,0817.4,5.01,0.00,30.0,29.0,00.0,39.1,31.7,12.6,0000.0,0024.77,0005.04,0003.16
2021-10-12 03:37:00,,0817.4,4.99,0.00,30.0,29.1,00.0,39.2,31.8,12.5,0000.0,0023.44,0005.07,0003.16
2021-10-12 03:38:00,,0817.4,5.00,0.00,30.1,29.1,00.0,39.2,31.8,12.4,0000.0,0023.52,0005.20,0003.17
2021-10-12 03:39:00,,0817.4,5.01,0.00,30.1,29.2,00.0,39.2,31.9,12.4,0000.0,0021.95,0005.22,0003.18
2021-10-12 03:40:00,,0817.3,4.99,0.00,30.1,29.2,00.0,39.2,31.9,12.4,0000.0,0019.64,0005.27,0003.19
2021-10-12 03:41:00,,0817.4,4.99,0.00,30.1,29.2,00.0,39.2,31.9,12.5,0000.0,0020.38,0005.29,0003.20
2021-10-12 03:42:00,,0817.4,5.00,0.00,30.1,29.3,00.0,39.2,31.9,12.5,0000.0,0019.80,0005.25,0003.19
2021-10-12 03:43:00,,0817.4,5.01,0.00,30.2,29.3,00.0,39.2,31.9,12.5,0000.0,0019.82,0005.23,0003.18
2021-10-12 03:44:00,,0817.4,5.00,0.00,30.2,29.3,00.0,39.2,32.0,12.5,0000.0,0019.38,0005.22,0003.18
2021-10-12 03:45:00,,0817.4,5.00,0.00,30.2,29.4,00.0,39.2,32.0,12.5,0000.0,0019.05,0005.23,0003.19
2021-10-12 03:46:00,,0817.5,5.00,0.00,30.2,29.4,00.0,39.3,32.0,12.4,0000.0,0019.53,0005.19,0003.20
2021-10-12 03:47:00,,0817.4,5.01,0.00,30.2,29.4,00.0,39.3,32.0,12.4,0000.0,0020.42,0005.24,0003.22
2021-10-12 03:48:00,,0817.4,4.99,0.00,30.2,29.4,00.0,39.3,32.0,12.5,0000.0,0021.25,0005.29,0003.23
2021-10-12 03:49:00,,0817.5,5.00,0.00,30.2,29.4,00.0,39.3,32.0,12.5,0000.0,0021.04,0005.31,0003.25
2021-10-12 03:50:00,,0817.5,5.01,0.00,30.3,29.4,00.0,39.3,32.0,12.5,0000.2,0021.32,0005.36,0003.26
2021-10-12 03:51:00,,0817.5,5.00,0.00,30.3,29.4,00.0,39.3,32.1,12.5,0000.2,0021.37,0005.32,0003.26
2021-10-12 03:52:00,,0817.5,5.01,0.00,30.3,29.4,00.0,39.3,32.1,12.5,0000.0,0020.16,0005.26,0003.26
2021-10-12 03:53:00,,0817.4,5.00,0.00,30.3,29.5,00.0,39.4,32.1,12.5,0000.0,0021.28,0005.32,0003.26
2021-10-12 03:54:00,,0817.5,4.99,0.00,30.3,29.5,00.0,39.4,32.1,12.5,0000.0,0023.24,0005.37,0003.27
2021-10-12 03:55:00,,0817.5,5.03,0.00,30.3,29.5,00.0,39.4,32.1,12.5,0000.0,0024.37,0005.38,0003.28
2021-10-12 03:56:00,,0817.5,4.99,0.00,30.3,29.5,00.0,39.4,32.1,12.5,0000.0,0024.26,0005.40,0003.28
2021-10-12 03:57:00,,0817.5,5.00,0.00,30.3,29.5,00.0,39.4,32.1,12.6,0000.0,0023.49,0005.42,0003.27
2021-10-12 03:58:00,,0817.5,5.00,0.00,30.3,29.5,00.0,39.4,32.1,12.6,0000.0,0023.12,0005.43,0003.27
2021-10-12 03:59:00,,0817.5,5.01,0.00,30.3,29.5,00.0,39.4,32.1,12.6,0000.0,0022.71,0005.40,0003.27
